{"data":{"norad_id":58513,"epoch":"2026-09-20T21:55:48.698112Z","epoch_age_seconds":111107,"freshness":"FRESH","line1":"1 58513U 23191F   26263.91375808  .00000589  00000+0  30939-4 0  9997","line2":"2 58513  43.0021  81.3114 0001289 268.3212  91.7492 15.27581393155351","mean_motion":15.27581393,"eccentricity":0.0001289,"inclination_deg":43.0021,"raan_deg":81.3114,"arg_perigee_deg":268.3212,"mean_anomaly_deg":91.7492,"bstar":3.0939e-5,"rev_number":15535,"period_min":94.266662751894,"perigee_km":482.16051854957,"apogee_km":483.92933124981,"semimajor_km":6861.1819248997,"source":"CELESTRAK","updated_at":"2026-09-21T09:00:33.907615Z"}}